{"data":{"norad_id":58552,"epoch":"2026-05-25T04:28:50.664864Z","epoch_age_seconds":52192,"freshness":"FRESH","line1":"1 58552U 23192X   26145.18669751  .00000802  00000+0  34869-4 0  9996","line2":"2 58552  53.1618  66.9752 0001197  81.4364 278.6774 15.34394170137706","mean_motion":15.3439417,"eccentricity":0.0001197,"inclination_deg":53.1618,"raan_deg":66.9752,"arg_perigee_deg":81.4364,"mean_anomaly_deg":278.6774,"bstar":3.4869e-5,"rev_number":13770,"period_min":93.848114660133,"perigee_km":461.90171759967,"apogee_km":463.53941890151,"semimajor_km":6840.8575682506,"source":"CELESTRAK","updated_at":"2026-05-25T13:38:18.664790Z"}}